Probability
0 0 0 0 0 0 0 0 0 0 0 0 0 0 0 0 0 0 0 0 0 0 0 0 0 0 0 0 0 0 0 0 0 0 0 0 0 0 0 0 0 0 0
0 0 0 0 0 0 0 0 0 0 0 0 0 0 0 0 0 0 0 0 0 0 0 0 0 0 0 0 0 0 0 0 0 0 0 0 0 0 0 0 0 0 0
0 0 0 0 0 0 0 0 0 0 0 0 0 0 0 0 0 0 0 0 0 0 0 0 0 0 0 0 0 0 0 0 0 0 0 0 0 0 0 0 0 0 0
0 0 1 2 3 2 0 0 0 0 0 0 0 0 0 0 0 0 0 0 0 0 0 0 0 0 0 0 0 0 0 0 0 0 0 0 0 0 0 0 0 0 0
1 0 3 8 9 6 3 1 0 0 0 0 0 0 0 0 0 0 0 0 0 0 0 0 0 0 0 0 0 0 0 0 0 0 0 0 0 0 0 0 0 0 0
1 1 8 18 19 13 7 3 1 1 1 1 0 0 0 0 0 0 0 0 0 0 0 0 0 0 0 0 0 0 0 0 0 0 0 0 0 0 0 0 0 0 0
2 4 13 28 30 22 15 9 5 3 2 2 1 0 0 0 0 0 0 0 0 0 0 0 0 0 0 0 0 0 0 0 0 0 0 0 0 0 0 0 0 0 0
5 8 17 31 37 32 24 17 10 6 4 2 1 0 0 0 0 0 0 0 0 0 0 0 0 0 0 0 0 0 0 0 0 0 0 0 0 0 0 0 0 0 0
8 13 22 31 38 36 29 21 15 9 5 2 0 0 0 0 0 0 0 0 0 0 0 0 0 0 0 0 0 0 0 0 0 0 0 0 0 0 0 0 0 0 0
11 18 28 36 40 37 30 24 19 14 8 3 0 0 0 0 0 0 0 0 0 0 0 0 0 0 0 0 0 0 0 0 0 0 0 0 0 0 0 0 0 0 0
15 22 33 42 44 41 35 29 24 19 12 6 2 0 0 0 0 0 0 0 0 0 0 0 0 0 0 1 1 0 0 0 0 0 0 0 0 0 0 1 1 1 1
20 24 33 42 47 46 41 35 29 24 18 11 5 2 1 0 0 0 0 0 0 0 0 0 0 0 3 6 6 5 4 2 1 0 0 0 0 0 1 2 2 2 2
23 25 31 40 45 47 45 40 35 29 22 15 10 6 4 2 1 0 0 0 0 0 0 0 0 1 5 11 12 9 8 6 4 3 1 1 1 1 1 1 2 2 2
28 29 33 38 41 44 44 41 37 32 25 19 15 11 8 7 5 3 1 0 0 0 0 1 1 2 4 7 9 7 6 7 6 4 3 2 2 3 3 1 1 1 1
41 40 40 42 42 42 41 38 36 33 26 21 18 16 14 13 10 6 3 1 0 1 1 2 2 2 2 2 3 3 2 3 4 3 2 2 4 7 6 4 3 2 1
48 46 46 47 45 43 38 34 33 31 25 21 19 18 19 17 13 9 5 1 1 2 4 4 4 3 2 2 2 2 1 1 2 2 1 1 3 6 7 6 6 5 3
42 42 44 44 42 40 36 33 31 27 21 19 17 17 19 19 16 13 8 3 3 5 8 9 8 7 5 4 2 3 2 2 2 3 2 1 1 3 5 6 6 7 7
32 33 36 38 36 34 32 30 27 23 21 20 18 17 18 20 20 17 12 7 6 8 10 11 10 9 8 5 3 3 3 1 1 2 1 1 1 2 3 4 4 8 12
25 25 29 32 32 29 27 27 25 22 22 24 20 16 16 18 19 18 14 11 9 9 9 10 9 7 6 5 3 3 2 1 0 0 0 0 1 2 3 3 4 7 11
19 19 21 24 25 24 24 25 24 20 21 23 19 14 13 14 16 16 13 10 9 9 8 8 7 5 3 3 2 2 1 0 0 0 0 0 0 1 2 2 4 5 5
13 14 15 16 17 19 21 21 18 15 16 17 14 11 10 13 15 15 11 7 7 8 8 6 5 4 3 1 1 1 0 0 0 0 0 0 0 1 1 1 3 3 2
9 9 9 9 9 11 14 13 10 9 10 11 9 8 8 10 12 12 9 5 4 4 4 3 3 3 2 1 0 0 0 0 0 0 0 0 0 0 0 0 1 1 1
7 6 5 4 4 5 5 5 4 5 6 7 5 4 5 7 9 9 7 4 2 1 1 1 1 1 1 0 0 0 0 0 0 0 0 0 0 0 0 0 0 0 0
4 4 3 1 0 1 1 1 2 3 4 5 3 2 3 4 6 6 4 2 1 0 0 0 0 0 0 0 0 0 0 0 0 0 0 0 0 0 0 0 0 0 0
2 2 1 0 0 0 0 0 1 1 1 2 1 1 1 2 3 2 2 1 0 0 0 0 0 0 0 0 0 0 0 0 0 0 0 0 0 0 0 0 0 0 0
1 1 0 0 0 0 0 0 0 0 0 1 0 0 0 0 1 1 1 0 0 0 0 0 0 0 0 0 0 0 0 0 0 0 0 0 0 0 0 0 0 0 0
Wind_Speed
9 11 19 19 18 17 17 16 16 16 16 16 16 16 16 16 15 14 13 12 11 10 10 9 9 9 10 10 11 11 12 12 12 12 12 12 12 12 12 12 12 10 13
14 14 20 19 18 17 17 16 16 16 15 15 15 15 15 15 14 13 13 12 11 10 10 9 9 9 9 10 10 11 11 11 11 11 11 10 11 11 12 12 11 8 12
15 14 17 19 19 18 17 16 15 15 15 15 15 15 14 14 14 13 12 12 11 10 9 9 9 9 9 9 9 9 10 10 10 10 9 5 6 10 11 12 12 12 12
14 12 13 19 19 18 17 16 15 14 14 14 14 14 14 13 13 13 12 11 11 10 9 9 9 9 9 9 8 8 8 8 9 8 4 3 3 8 10 11 12 12 12
12 10 13 21 19 18 17 16 15 14 14 13 13 13 13 12 12 12 12 11 10 10 10 9 9 9 9 8 8 7 7 7 7 6 3 2 1 6 9 11 12 12 12
11 9 12 21 19 18 17 16 15 14 13 13 13 13 12 12 12 11 11 11 10 10 9 9 9 9 8 8 8 7 7 6 5 3 2 2 2 6 9 10 11 12 12
12 9 11 20 19 18 17 16 15 14 14 13 13 13 12 12 12 12 11 11 10 10 9 9 9 8 8 8 8 7 7 6 3 2 2 3 4 8 10 11 12 12 12
13 10 9 19 19 18 17 17 16 15 14 14 13 13 13 12 12 12 11 11 11 10 10 9 9 9 9 8 8 8 7 7 5 4 3 3 5 9 12 12 12 13 13
11 9 7 10 13 17 17 17 16 15 14 14 14 13 13 12 12 12 11 11 11 11 11 10 10 10 10 9 9 9 9 9 5 3 4 3 6 9 12 13 13 14 14
10 9 7 7 7 8 10 15 16 15 15 15 14 14 14 13 13 13 11 11 12 12 12 12 12 11 11 11 11 11 11 9 6 6 4 5 8 9 12 13 14 15 15
11 9 8 7 7 7 7 11 13 15 15 14 12 15 13 6 6 7 11 13 13 13 13 13 13 13 12 11 12 12 10 5 6 5 5 9 11 11 12 14 15 15 16
13 12 9 9 8 7 8 6 5 6 6 7 5 6 5 4 5 8 8 14 15 15 15 15 15 14 11 6 9 11 5 7 6 6 6 12 13 13 14 14 14 16 17
10 11 10 9 8 7 5 4 3 3 3 5 6 6 4 3 4 5 4 6 7 10 8 9 10 7 6 6 6 6 7 7 5 5 7 13 14 15 15 14 14 15 16
7 8 7 7 6 6 5 3 3 4 4 5 6 6 5 4 5 5 4 5 4 4 5 5 4 6 7 8 8 8 8 6 6 5 7 14 15 15 15 15 14 15 16
6 6 6 6 6 5 4 3 4 5 5 5 5 6 7 6 6 6 5 4 5 4 4 5 5 5 6 7 7 8 8 8 8 7 5 13 14 14 14 14 14 15 16
6 6 6 7 6 5 4 4 4 4 4 4 5 7 8 7 6 5 5 5 5 4 4 4 4 4 4 4 6 7 7 7 7 8 7 8 13 13 14 15 15 15 16
4 4 4 5 5 5 5 5 4 4 4 5 5 7 7 7 7 6 5 4 4 3 3 3 3 2 3 3 4 5 5 6 6 7 7 6 7 11 14 14 14 14 14
3 3 3 4 5 5 5 4 3 4 4 4 4 5 7 8 8 6 5 4 3 2 2 2 2 1 2 2 3 3 4 4 6 6 6 6 6 6 9 13 13 12 13
3 3 2 2 3 3 3 2 2 3 3 3 3 4 5 6 6 5 5 4 3 3 2 2 1 2 2 2 3 4 4 4 5 6 6 7 6 6 6 8 12 12 13
4 3 2 2 1 1 1 1 2 2 2 2 2 3 4 3 4 4 4 4 4 3 2 2 2 2 2 2 3 3 3 4 3 4 6 5 5 6 6 6 5 6 10
6 6 5 5 4 2 1 1 1 1 2 1 1 3 3 3 3 3 3 3 3 3 4 3 2 2 2 1 0 2 3 3 2 2 3 3 3 4 4 4 4 4 4
7 6 6 6 5 4 2 0 0 0 1 1 1 1 1 1 2 3 3 3 3 3 3 3 3 2 1 2 2 0 2 3 2 1 1 1 2 2 2 3 4 4 4
7 6 5 5 6 5 4 2 1 2 2 2 3 2 3 2 2 2 3 3 3 4 4 4 4 4 3 2 2 2 2 2 2 3 2 1 2 1 2 3 4 5 5
5 4 5 5 5 4 3 4 4 2 1 1 2 2 3 3 3 2 2 2 3 3 4 4 4 4 4 3 2 2 2 2 2 2 3 2 3 3 3 3 4 5 5
3 3 3 4 4 3 3 4 3 2 0 1 2 3 3 3 3 3 2 2 3 3 4 4 4 5 4 4 4 3 2 2 2 2 3 3 3 3 4 4 4 4 4
2 2 1 2 2 2 2 2 2 1 1 2 2 3 2 2 2 3 3 2 3 3 4 5 5 6 5 5 4 4 4 3 4 4 5 4 4 3 4 4 4 3 3
Wind_Direction
167 164 169 161 155 149 145 141 138 136 135 135 136 138 142 145 148 150 151 152 151 147 142 134 128 123 121 121 122 122 123 125 127 128 128 128 127 125 122 120 117 116 118
155 160 166 162 157 152 148 144 142 140 140 140 141 143 146 149 151 153 154 155 154 151 147 143 138 134 131 128 127 128 130 133 134 133 131 133 136 136 133 130 127 128 125
149 159 163 162 158 154 150 148 146 146 145 145 146 148 150 153 155 156 157 159 158 156 154 151 148 144 140 137 135 136 137 139 140 138 128 120 141 146 144 141 140 136 133
148 155 160 163 160 157 154 153 152 152 152 152 153 155 156 158 160 162 163 164 164 163 161 160 158 155 151 148 147 146 146 147 147 142 124 128 142 155 155 152 150 147 143
146 152 164 164 162 160 159 158 158 159 160 161 162 164 164 165 166 168 169 170 171 171 171 171 170 166 164 162 161 160 160 158 158 145 141 152 135 164 163 162 162 159 155
147 152 168 165 165 163 163 164 165 166 168 170 172 173 174 174 175 176 177 179 181 182 183 182 182 179 178 177 177 178 179 182 172 142 161 187 197 191 181 178 176 172 167
151 156 170 167 167 167 167 170 172 174 176 179 181 183 184 185 185 187 188 190 193 195 197 197 197 195 194 193 194 196 200 206 185 189 209 217 217 214 203 195 190 184 180
157 159 167 171 171 171 172 176 179 181 184 186 189 191 193 194 195 197 198 201 204 208 210 210 211 211 211 210 210 212 215 222 220 218 224 228 231 225 216 208 201 194 189
157 159 165 170 173 176 178 181 185 187 190 193 196 198 201 203 205 207 209 212 215 218 221 223 224 225 225 224 224 225 227 230 227 217 234 232 238 232 223 216 211 204 198
160 165 165 165 167 173 181 188 191 194 197 200 203 205 208 211 213 217 218 223 226 228 230 232 233 234 235 235 235 236 237 239 234 227 233 240 247 243 233 225 219 212 206
172 176 172 169 169 170 177 193 195 200 204 206 210 213 214 216 220 227 229 230 235 238 238 239 240 241 242 242 242 243 245 235 231 233 232 241 246 246 242 234 226 218 212
182 184 183 180 177 174 187 190 193 202 205 206 206 216 212 204 217 230 240 241 243 245 245 244 243 243 244 239 244 247 241 236 234 236 237 241 243 244 243 239 232 223 217
182 185 188 190 185 184 189 185 191 200 203 210 210 211 213 211 220 232 234 249 252 253 250 249 246 238 231 228 231 233 237 239 238 240 242 242 242 243 242 238 235 228 224
173 186 182 188 189 195 198 201 199 207 212 217 217 210 209 219 225 228 233 235 237 243 246 244 240 235 231 230 230 233 236 236 237 238 242 245 244 244 245 240 236 232 229
167 175 172 176 184 189 202 221 213 217 225 228 224 217 215 222 229 229 234 236 238 236 238 242 240 239 235 234 235 236 238 237 238 237 243 250 251 248 249 246 241 236 233
162 169 165 171 179 177 195 220 229 225 227 228 227 225 218 221 225 225 231 235 236 231 230 230 235 235 238 236 243 240 240 241 242 241 239 248 251 251 250 247 246 242 236
143 147 152 162 169 181 197 210 224 228 229 228 232 232 224 221 220 221 226 231 232 222 218 218 230 230 241 242 249 251 246 244 244 244 244 243 251 253 253 250 248 244 240
117 140 161 173 176 185 193 207 215 238 227 227 236 237 227 221 218 214 216 225 222 203 196 199 202 211 234 239 247 255 252 249 250 249 248 246 245 249 252 253 252 246 244
109 125 154 159 179 185 185 222 234 241 248 239 230 242 231 223 215 208 213 212 194 179 180 191 176 192 220 241 253 254 254 250 252 255 250 248 244 244 246 253 253 250 247
59 65 56 42 323 171 163 178 249 239 251 251 226 246 239 217 204 203 206 199 178 171 176 179 177 190 212 238 266 276 273 267 261 255 254 253 249 246 245 247 248 249 248
49 53 46 37 11 23 41 59 315 308 277 276 259 239 228 205 204 205 199 188 183 184 187 186 175 187 208 182 285 315 308 292 273 254 255 248 249 251 250 249 244 243 248
38 39 43 35 31 28 35 39 210 271 292 283 297 288 294 234 220 215 196 195 196 195 193 186 180 173 193 170 161 122 331 334 333 336 310 259 265 262 265 267 256 249 247
43 43 54 52 45 31 23 38 32 24 4 3 353 350 352 345 306 258 221 202 202 201 205 205 191 183 192 200 188 168 175 247 303 317 322 317 305 288 291 286 271 260 250
40 44 56 56 57 44 42 55 55 53 28 339 326 333 339 338 313 295 268 236 219 209 216 216 196 189 177 197 205 210 201 182 201 302 310 308 310 292 291 293 288 273 258
23 36 47 56 58 53 61 68 69 59 43 321 333 343 345 333 322 310 276 251 240 224 222 220 203 200 193 191 188 182 195 212 210 218 270 299 307 284 280 278 274 271 262
349 5 23 55 39 27 51 67 85 72 30 4 340 335 333 321 318 327 311 283 262 247 236 225 214 210 207 201 199 191 183 188 199 205 235 261 280 280 280 272 263 261 259